OpenBCM V1.13 (Linux)

Packet Radio Mailbox

DB0FHN

[JN59NK Nuernberg]

 Login: GUEST





  
LU9DCE > KEP      09.07.19 20:33l 245 Lines 12011 Bytes #999 (0) @ WW
BID : 28331_LU9DCE
Read: DJ6UX DF7EAV GUEST
Subj: TLE 09 07
Path: DB0FHN<DB0BLO<DB0ERF<DB0RES<DB0OVN<DB0GOS<ON0AR<VE2PKT<N3HYM<LU9DCE
Sent: 190709/1800Z 28331@LU9DCE.TOR.BA.ARG.SOAM LinBPQ6.0.18

            __    _  _  ___  ____   ___  ____    ____  ____  ____
           (  )  / )( \/ _ \(    \ / __)(  __)  (  _ \(  _ \/ ___)
           / (_/\) \/ (\__  )) D (( (__  ) _)    ) _ ( ) _ (\___ \
           \____/\____/(___/(____/ \___)(____)  (____/(____/(____/
               ESTACION DE PACKET RADIO - BUENOS AIRES (GF05OM)
                   BOLETINES INFORMATIVOS PROGRAMADOS (BIP)
                  SLACKWARE LINUX - HELLOCODELINUX@GMAIL.COM

+----------------------------------------------------------------------------+
OSCAR 7
1  7530U 74089B   19189.89424324 -.00000023  00000-0  13910-3 0  9990
2  7530 101.7447 157.3493 0011893 310.0690 106.1436 12.53638822 43057
OSCAR 11 (UoSAT 2)
1 14781U 84021B   19190.14301578  .00000020  00000-0  86122-5 0  9991
2 14781  97.6095 213.8935 0007030 248.8423 111.2041 14.83094182901797
OSCAR 19 (LUSAT)
1 20442U 90005G   19190.40779974 -.00000009  00000-0  12898-4 0  9995
2 20442  98.6492 132.3742 0012958  88.3999 271.8669 14.32928279539345
EYESAT A
1 22825U 93061C   19189.93016747 -.00000014 +00000-0 +12618-4 0  9991
2 22825 098.9036 179.0296 0007479 304.7575 055.2902 14.30061841344572
ITAMSAT
1 22826U 93061D   19190.55667259 -.00000012  00000-0  13180-4 0  9995
2 22826  98.8977 179.6593 0007865 289.8372  70.1962 14.30395555345136
RADIO ROSTO
1 23439U 94085A   19189.91490748 -.00000038 +00000-0 +11422-3 0  9992
2 23439 064.8175 083.4223 0146167 109.2543 252.4257 11.27568223010178
JAS 2
1 24278U 96046B   19189.88475663 -.00000029 +00000-0 +66485-5 0  9999
2 24278 098.5399 340.5581 0350261 187.4817 172.1015 13.53092666130289
TECHSAT 1B
1 25397U 98043D   19190.07124847 -.00000021  00000-0  98848-5 0  9999
2 25397  98.6893 129.9693 0001423  28.6967 331.4289 14.23667423 90779
ISS (ZARYA)
1 25544U 98067A   19190.55063039  .00000469  00000-0  15799-4 0  9995
2 25544  51.6428 250.3156 0007260 122.8430  21.8089 15.50965495178727
PCSAT
1 26931U 01043C   19190.54486992 -.00000031  00000-0  19778-4 0  9997
2 26931  67.0522 309.8684 0006992 277.6292  82.4015 14.30546451927959
SAUDISAT 1C
1 27607U 02058C   19189.94687499 -.00000042 +00000-0 +15038-4 0  9999
2 27607 064.5555 347.6683 0080676 252.6415 106.5852 14.75556950889899
CUTE-1
1 27844U 03031E   19190.54815790  .00000024  00000-0  30661-4 0  9997
2 27844  98.6832 198.4495 0009289 338.0248  22.0530 14.22184285831257
CUBESAT XI 4
1 27848U 03031J   19189.49062593  .00000021  00000-0  29442-4 0  9990
2 27848  98.6909 197.9120 0009469 353.0387   7.0658 14.21778707830953
MOZHAYETS 4
1 27939U 03042A   19190.51321727  .00000089  00000-0  24621-4 0  9993
2 27939  98.0441 325.9253 0012974   7.7449 352.3955 14.66789521843591
CUBESAT XI 5
1 28895U 05043F   19190.08541119  .00000087  00000-0  25549-4 0  9997
2 28895  97.9619 332.1202 0015402 288.6727  71.2804 14.63673199730461
CUTE-1.7+APD II
1 32785U 08021C   19189.85502219  .00000118  00000-0  18372-4 0  9991
2 32785  97.5494 188.6186 0012707 189.1864 170.9122 14.88317667606686
DELFI C3
1 32789U 08021G   19189.67096754 +.00000926 +00000-0 +65782-4 0  9991
2 32789 097.4631 238.7324 0013669 062.0926 298.1684 15.06986466609879
SEEDS
1 32791U 08021J   19189.97381194  .00000237  00000-0  29417-4 0  9992
2 32791  97.5274 194.7263 0013710 163.8113 196.3546 14.90830829607130
YUBELEINY
1 32953U 08025A   19190.32898166  .00000021  00000-0  75656-4 0  9996
2 32953  82.5017 131.9326 0020422  83.0349 277.3055 12.43090364504874
PRISM (HITOMI)
1 33493U 09002B   19190.32103273  .00000603  00000-0  58314-4 0  9998
2 33493  98.1213 112.0588 0016436 112.9947 247.3009 14.96666239568237
KKS-1 (KISEKI)
1 33499U 09002H   19190.56236383  .00000093  00000-0  21706-4 0  9997
2 33499  98.3492  29.9342 0010075 134.4512 225.7521 14.75446690562303
SWISSCUBE
1 35932U 09051B   19189.93447096 +.00000097 +00000-0 +32856-4 0  9991
2 35932 098.5898 356.5011 0008892 102.5312 257.6880 14.56290399519686
BEESAT
1 35933U 09051C   19189.93620453 +.00000077 +00000-0 +28405-4 0  9995
2 35933 098.5924 358.2704 0007010 112.8857 247.3080 14.56378816519751
ITUPSAT 1
1 35935U 09051E   19190.14304357  .00000065  00000-0  26052-4 0  9997
2 35935  98.6033 358.7201 0009335 110.8749 249.3447 14.55538140519613
XIWANG-1 (HOPE-1)
1 36122U 09072B   19190.48500185 -.00000046  00000-0 -11086-4 0  9995
2 36122 100.0732 191.8883 0007006 300.0083  60.0341 13.16350126459611
TISAT 1
1 36799U 10035E   19190.41779150  .00000187  00000-0  25014-4 0  9999
2 36799  98.1582 343.2597 0012731  24.5306 335.6515 14.91113762487851
JUGNU
1 37839U 11058B   19189.45934939  .00000293  00000-0  14200-4 0  9994
2 37839  19.9598 214.9068 0018708 184.3507 323.5246 14.12653370400051
SRMSAT
1 37841U 11058D   19189.60639517 +.00000306 +00000-0 +23129-4 0  9993
2 37841 019.9719 271.2039 0012017 055.4668 086.3345 14.10634975399415
M-CUBED/EXP-1 PRIME
1 37855U 11061F   19189.67137004 +.00001225 +00000-0 +68921-4 0  9993
2 37855 101.7129 095.5244 0173691 017.6364 343.0777 15.05456655419315
HORYU 2
1 38340U 12025D   19190.52700906  .00000116  00000-0  24929-4 0  9995
2 38340  98.3275 229.7417 0012666  61.8288 298.4198 14.75725973384231
STRAND 1
1 39090U 13009E   19190.14501346  .00000008  00000-0  17901-4 0  9998
2 39090  98.4869  35.7588 0008236 223.0209 137.0334 14.35089208333325
SOMP
1 39134U 13015E   19189.62227116 +.00000739 +00000-0 +43117-4 0  9994
2 39134 064.8640 315.8648 0031663 301.2543 058.5483 15.20183185343245
BEESAT 3
1 39135U 13015F   19189.64567637 +.00000509 +00000-0 +35102-4 0  9992
2 39135 064.8698 334.3670 0023842 318.3261 041.6047 15.17491343342888
BEESAT 2
1 39136U 13015G   19190.54726072  .00000581  00000-0  39227-4 0  9996
2 39136  64.8710 335.3433 0020216 298.9999  60.9100 15.16921935343334
CUBEBUG 1
1 39153U 13018D   19190.51109084  .00000106  00000-0  20775-4 0  9994
2 39153  97.9794 288.5196 0018152 128.4412 231.8433 14.80572592334890
ZACUBE
1 39417U 13066B   19190.03991361  .00000123  00000-0  21999-4 0  9992
2 39417  97.5616 202.3978 0058085 328.6829  31.0930 14.81121579304052
TRITON 1
1 39427U 13066M   19190.17884775  .00000183  00000-0  36862-4 0  9999
2 39427  97.6771 166.2917 0115354  99.7314 261.6943 14.67847623301348
GOMX 1
1 39430U 13066Q   19190.39918923  .00000093  00000-0  25854-4 0  9999
2 39430  97.7483 145.5897 0150845 188.4775 171.3886 14.59258153299626
HUMSAT D
1 39433U 13066T   19190.06613144  .00000355  00000-0  39952-4 0  9998
2 39433  97.5521 236.7386 0029518 230.7425 129.1175 14.92201653306116
CUBEBUG 2
1 39440U 13066AA  19190.49750621  .00000150  00000-0  27771-4 0  9994
2 39440  97.6021 187.7058 0080788  18.5051 341.9067 14.75859891303041
FUNCUBE 1
1 39444U 13066AE  19190.02924225  .00000162  00000-0  26419-4 0  9991
2 39444  97.5597 204.3533 0057054 322.4173  37.3060 14.81941310302940
UWE-3
1 39446U 13066AG  19190.53362985  .00000137  00000-0  24884-4 0  9994
2 39446  97.5807 194.7854 0069823 353.4059   6.6227 14.78394374302344
SPROUT
1 39770U 14029E   19190.35225369  .00000466  00000-0  57658-4 0  9998
2 39770  97.8841 293.5093 0009818  24.5754 335.5926 14.87355194277904
UNISAT 6
1 40012U 14033C   19189.63386886 +.00000093 +00000-0 +21310-4 0  9997
2 40012 097.7554 055.3840 0059288 034.7436 325.7622 14.73982803271620
DUCHIFAT 1
1 40021U 14033M   19190.48762500  .00000265  00000-0  32895-4 0  9994
2 40021  97.9236 115.1503 0012699 348.5850  11.5078 14.90637966274647
QB50P1
1 40025U 14033R   19190.53310181  .00000197  00000-0  26926-4 0  9990
2 40025  97.9056 110.1841 0012440 357.9828   2.1336 14.88949886274427
CHUBUSAT 1
1 40300U 14070C   19190.29445610  .00000445  00000-0  22347-4 0  9995
2 40300  97.3267 263.9560 0020026 347.6016  54.8678 15.22099458259156
NUDT-PHONESAT
1 40900U 15049B   19190.41081272  .00001365  00000-0  61255-4 0  9995
2 40900  97.4358 199.5413 0014396 109.3213 358.4637 15.22822413210813
ZDPS 2A
1 40901U 15049C   19190.44702514  .00000343  00000-0  20292-4 0  9999
2 40901  97.4589 195.9693 0014816 126.9635 337.2257 15.17737559210385
ZDPS 2B
1 40902U 15049D   19190.54257250  .00000846  00000-0  45402-4 0  9991
2 40902  97.4535 193.5557 0014847 123.4147 350.6729 15.17560441210370
XW-2A
1 40903U 15049E   19190.41739662  .00001189  00000-0  29942-4 0  9992
2 40903  97.3359 233.2970 0015313  72.7403  23.1722 15.41888204213448
KAITUO 1A
1 40904U 15049F   19190.47860065  .00000506  00000-0  30235-4 0  9990
2 40904  97.4664 192.1305 0015827 131.3110  21.6982 15.15372271210149
OBJECT G
1 40905U 15049G   19190.44258759 -.00000073  00000-0 -41642-6 0  9996
2 40905  97.4700 189.6280 0016820 127.2263  31.7537 15.14295124210015
XW-2C
1 40906U 15049H   19190.40144164  .00000594  00000-0  34589-4 0  9993
2 40906  97.4672 192.1360 0016276 123.7544 346.1081 15.15684726210131
XW-2D
1 40907U 15049J   19190.45310317  .00000211  00000-0  14445-4 0  9999
2 40907  97.4651 191.8647 0015578 121.0864  46.5400 15.15870389210153
LILACSAT 2
1 40908U 15049K   19190.42392631  .00000211  00000-0  15273-4 0  9996
2 40908  97.4781 190.6669 0017079 127.3469   9.7195 15.13806382209944
XW-2F
1 40910U 15049M   19190.51508255  .00000527  00000-0  29729-4 0  9991
2 40910  97.4616 193.9369 0016236 114.0284 346.3468 15.17308170210175
XW-2B
1 40911U 15049N   19190.40942278  .00000567  00000-0  33103-4 0  9992
2 40911  97.4677 192.4731 0015434 121.5799 344.5247 15.15802960210048
KAITUO 1B
1 40912U 15049P   19190.38402306  .00000561  00000-0  29466-4 0  9994
2 40912  97.4491 197.4689 0016341  98.1088   9.1793 15.19620765210458
TIANWANG 1C (TW-1C)
1 40926U 15051B   19190.49214045  .00007115  00000-0  10362-3 0  9991
2 40926  97.1333 236.6416 0006117 301.1190 166.2690 15.56016525213391
